FW0025 Weather Reports


time (UTC)temp
C
wind
direction
speed
KPH
gust
KPH
rain 1hr
cm
rain 24hr
cm
rain mn
cm
humidity
%
barometer
mb
20260507051532 11 211 0.0 0.0 0.00 0.00 0.00 60 1019.1
20260507050032 11 211 0.0 0.0 0.00 0.00 0.00 51 1018.9
20260507044530 11 211 0.0 0.0 0.00 0.00 0.00 63 1018.9
20260507043029 11 211 0.0 0.0 0.00 0.00 0.00 65 1019.0
20260507041528 11 211 0.0 0.0 0.00 0.00 0.00 67 1018.9
20260507040028 11 210 0.0 0.0 0.00 0.00 0.00 68 1018.9
20260507034530 11 211 0.0 0.0 0.00 0.00 0.00 69 1018.8
20260507033036 12 211 0.0 3.2 0.00 0.00 0.00 69 1018.7
20260507031543 13 211 1.6 4.8 0.00 0.00 0.00 54 1018.7
20260507030025 12 150 0.0 1.6 0.00 0.00 0.00 54 1018.4
20260507024525 12 150 0.0 1.6 0.00 0.00 0.00 59 1018.3
20260507023025 11 150 0.0 3.2 0.00 0.00 0.00 65 1018.2
20260507021525 11 150 0.0 1.6 0.00 0.00 0.00 78 1018.2
20260507020025 11 150 0.0 3.2 0.00 0.00 0.00 78 1018.3
20260507014527 11 150 1.6 3.2 0.00 0.00 0.00 77 1018.3
20260507013032 12 150 1.6 3.2 0.00 0.00 0.00 75 1018.2
20260507011530 12 150 1.6 4.8 0.00 0.00 0.00 74 1018.2
20260507010022 12 153 1.6 4.8 0.00 0.00 0.00 73 1018.1
20260507004521 12 148 1.6 4.8 0.00 0.00 0.00 71 1018.1
20260507003021 13 200 1.6 4.8 0.00 0.00 0.00 70 1018.2
20260507001525 13 198 1.6 3.2 0.00 0.00 0.00 69 1018.2
20260507000018 13 171 3.2 6.4 0.00 0.00 0.00 69 1018.1
20260506234517 13 233 0.0 6.4 0.00 0.00 0.00 69 1018.2
20260506233017 14 246 0.0 6.4 0.00 0.00 0.00 66 1018.2
20260506231514 15 142 3.2 6.4 0.00 0.00 0.00 66 1018.4
20260506230012 15 146 1.6 6.4 0.00 0.00 0.00 62 1018.5
20260506224510 16 138 3.2 6.4 0.00 0.00 0.00 61 1018.6
20260506223015 16 196 1.6 6.4 0.00 0.00 0.00 61 1018.8
20260506221507 18 236 3.2 6.4 0.00 0.00 0.00 55 1019.0
20260506220007 18 28 1.6 6.4 0.00 0.00 0.00 41 1019.3
20260506214503 18 36 1.6 6.4 0.00 0.00 0.00 41 1019.3
20260506211557 17 271 0.0 4.8 0.00 0.00 0.00 46 1019.8
20260506210054 17 5 1.6 6.4 0.00 0.00 0.00 42 1020.0
20260506204551 16 24 1.6 8.0 0.00 0.00 0.00 48 1020.0
20260506203047 16 351 1.6 8.0 0.00 0.00 0.00 45 1020.1
20260506201545 15 285 0.0 6.4 0.00 0.00 0.00 49 1020.4
20260506200141 15 16 1.6 14.5 0.00 0.00 0.00 50 1020.5
20260506194538 14 279 1.6 9.7 0.00 0.00 0.00 50 1020.6
20260506193036 14 311 1.6 11.3 0.00 0.00 0.00 52 1020.8
20260506191533 13 282 1.6 9.7 0.00 0.00 0.00 51 1021.0
20260506190036 13 14 3.2 6.4 0.00 0.00 0.00 54 1021.2
20260506184534 13 349 1.6 6.4 0.00 0.00 0.00 54 1021.2
20260506183026 12 5 1.6 6.4 0.00 0.00 0.00 53 1021.2
20260506181524 12 19 3.2 8.0 0.00 0.00 0.00 53 1021.3
20260506180026 12 333 1.6 6.4 0.00 0.00 0.00 56 1021.4
20260506174520 12 31 1.6 6.4 0.00 0.05 0.00 61 1021.2
20260506173018 11 360 1.6 6.4 0.00 0.05 0.00 63 1021.1
20260506171514 11 11 1.6 6.4 0.00 0.05 0.00 64 1021.1
20260506170011 11 5 1.6 6.4 0.00 0.05 0.00 62 1021.1
20260506164509 10 5 1.6 4.8 0.00 0.13 0.00 66 1021.0
20260506163007 10 360 3.2 8.0 0.00 0.13 0.00 66 1021.0
20260506161502 10 16 1.6 8.0 0.00 0.13 0.00 70 1020.8
20260506160111 9 30 1.6 8.0 0.00 0.13 0.00 75 1020.7
20260506154600 8 5 1.6 4.8 0.00 0.23 0.00 77 1020.7
20260506153057 7 333 1.6 3.2 0.00 0.23 0.00 80 1020.7
20260506151549 7 333 1.6 4.8 0.00 0.23 0.00 83 1020.8
20260506150044 6 332 1.6 3.2 0.00 0.23 0.00 83 1020.9
20260506144542 6 11 1.6 3.2 0.00 0.36 0.00 85 1020.8
20260506143040 5 11 1.6 3.2 0.00 0.36 0.00 86 1020.6
20260506141534 5 11 1.6 4.8 0.00 0.36 0.00 87 1020.6
20260506140031 4 11 1.6 3.2 0.00 0.36 0.00 86 1020.4
20260506134529 4 11 1.6 4.8 0.00 0.48 0.00 87 1020.2
20260506133027 3 11 1.6 4.8 0.00 0.48 0.00 88 1020.0
20260506131532 3 11 1.6 4.8 0.00 0.48 0.00 87 1019.9
20260506130023 3 11 1.6 4.8 0.00 0.48 0.00 87 1019.7
20260506124522 3 11 1.6 6.4 0.00 0.58 0.00 87 1019.6
20260506123020 3 16 1.6 4.8 0.00 0.58 0.00 89 1019.5
20260506121518 3 16 1.6 4.8 0.00 0.58 0.00 88 1019.3
20260506120020 3 16 3.2 4.8 0.00 0.58 0.00 88 1019.3
20260506114517 3 16 3.2 6.4 0.00 0.61 0.00 89 1019.3
20260506113016 3 16 1.6 4.8 0.00 0.61 0.00 90 1019.2
20260506111515 3 16 1.6 4.8 0.00 0.61 0.00 90 1019.1
20260506110020 3 16 3.2 4.8 0.00 0.61 0.00 89 1019.0
20260506104513 3 16 1.6 4.8 0.00 0.61 0.00 90 1018.9
20260506103011 3 16 1.6 4.8 0.00 0.61 0.00 91 1018.8
20260506101521 4 16 1.6 6.4 0.00 0.61 0.00 93 1018.8
20260506100005 3 279 3.2 4.8 0.00 0.61 0.00 94 1018.8
20260506094507 2 211 0.0 1.6 0.00 0.64 0.00 94 1018.8
20260506093002 2 211 0.0 1.6 0.00 0.64 0.00 94 1018.7
20260506091502 2 211 0.0 3.2 0.00 0.64 0.00 94 1018.8
20260506090059 2 211 0.0 3.2 0.00 0.64 0.00 94 1018.8
20260506084622 2 211 1.6 3.2 0.00 0.66 0.00 94 1018.9
20260506083056 2 211 1.6 3.2 0.00 0.66 0.00 94 1019.0
20260506081556 2 211 1.6 3.2 0.00 0.66 0.00 94 1019.2
20260506073050 2 211 0.0 3.2 0.00 0.69 0.00 94 1019.2
20260506071546 2 211 1.6 3.2 0.00 0.69 0.00 94 1019.3
20260506061540 2 211 0.0 3.2 0.00 0.71 0.69 94 1018.8